2024-247D

Last updated on Tue Jan 21 2025 00:02:04 GMT+0000 (Coordinated Universal Time)

1 62380U 24247D 25020.51526829 .00015149 00000+0 71429-3 0 9990 2 62380 44.9981 199.0659 0002397 198.2190 161.8604 15.19402872 4713
UTC large
Height (km)
Speed (km/s)
/
Latitude / Longitude
Inclination (degrees)
Orbital Period (minutes)
Azimuth
Elevation
Range (km)
Doppler Factor

Next 0 passes for location: London (51.5072 / 0.1276)

Sorry there are no passes over London.